{"data":{"norad_id":59769,"intl_designator":"2024-091S","name":"STARLINK-31830","alt_names":[],"object_type":"PAYLOAD","status":"ACTIVE","operator":null,"country":"US","launch_date":"2024-05-14","launch_site_code":"AFWTR","launch_vehicle":null,"mission":null,"orbit_class":"UNKNOWN","rcs_meters":null,"size_class":null,"mass_kg":null,"dimensions":null,"purposes":["comms"],"wikipedia_slug":null,"has_3d_model":false,"image_url":null,"decayed_at":null,"tle_current":{"epoch":"2026-05-24T23:38:39.660000Z","epoch_age_seconds":86847,"freshness":"FRESH","line1":"1 59769U 24091S   26144.98518125  .00000168  00000+0  17802-4 0  9994","line2":"2 59769  53.1607  32.6379 0001116  96.8327 263.2801 15.30194459114687","mean_motion":15.30194459,"eccentricity":0.0001116,"inclination_deg":53.1607,"raan_deg":32.6379,"arg_perigee_deg":96.8327,"mean_anomaly_deg":263.2801,"bstar":1.7802e-5,"rev_number":11468,"period_min":94.105686472101,"perigee_km":474.46677795917,"apogee_km":475.99644983379,"semimajor_km":6853.3686138965,"source":"CELESTRAK","updated_at":"2026-05-25T13:38:19.059210Z"}}}